EW6202 Weather Reports


Display with metric or nautical units.
time (UTC)temp
F
wind
direction
speed
MPH
gust
MPH
rain 1hr
in
rain 24hr
in
rain mn
in
humidity
%
barometer
mb
20210803095105 75 104 4.0 11.0 0.00 0.00 0.00 89 1015.5
20210803094704 75 126 4.0 11.0 0.00 0.00 0.00 89 1015.6
20210803094137 75 115 4.0 11.0 0.00 0.00 0.00 89 1015.5
20210803093559 75 61 4.0 11.0 0.00 0.00 0.00 89 1015.5
20210803093240 75 93 4.0 9.0 0.00 0.00 0.00 89 1015.5
20210803092558 75 66 4.0 10.0 0.00 0.00 0.00 89 1015.5
20210803092058 75 107 3.0 12.0 0.00 0.00 0.00 89 1015.4
20210803091646 75 139 4.0 12.0 0.00 0.00 0.00 89 1015.3
20210803091057 75 107 4.0 11.0 0.00 0.00 0.00 89 1015.4
20210803090556 75 111 5.0 10.0 0.00 0.00 0.00 89 1015.4
20210803090124 75 121 3.0 8.0 0.00 0.00 0.00 89 1015.4
20210803085607 75 115 3.0 8.0 0.00 0.00 0.00 89 1015.4
20210803085055 76 111 3.0 8.0 0.00 0.00 0.00 89 1015.4
20210803084759 76 110 3.0 8.0 0.00 0.00 0.00 89 1015.4
20210803084111 76 114 3.0 8.0 0.00 0.00 0.00 89 1015.4
20210803083555 76 97 2.0 8.0 0.00 0.00 0.00 89 1015.4
20210803083142 76 91 3.0 8.0 0.00 0.00 0.00 89 1015.4
20210803082602 76 90 3.0 11.0 0.00 0.00 0.00 89 1015.5
20210803082109 76 82 4.0 11.0 0.00 0.00 0.00 89 1015.4
20210803081659 76 67 3.0 8.0 0.00 0.00 0.00 89 1015.4
20210803081051 76 88 3.0 8.0 0.00 0.00 0.00 89 1015.5
20210803080555 76 106 3.0 8.0 0.00 0.00 0.00 88 1015.6
20210803080151 76 90 3.0 7.0 0.00 0.00 0.00 88 1015.6
20210803075551 76 109 2.0 7.0 0.00 0.00 0.00 88 1015.6
20210803075049 76 91 3.0 7.0 0.00 0.00 0.00 88 1015.6
20210803074630 76 97 2.0 6.0 0.00 0.00 0.00 88 1015.6
20210803074048 76 80 2.0 6.0 0.00 0.00 0.00 88 1015.6
20210803073557 76 111 1.0 4.0 0.00 0.00 0.00 88 1015.7
20210803073157 76 116 1.0 6.0 0.00 0.00 0.00 88 1015.6
20210803072615 76 110 2.0 7.0 0.00 0.00 0.00 88 1015.7
20210803072047 76 106 3.0 7.0 0.00 0.00 0.00 88 1015.7
20210803071708 76 111 3.0 10.0 0.00 0.00 0.00 88 1015.7
20210803071046 76 107 3.0 10.0 0.00 0.00 0.00 88 1015.7
20210803070546 76 64 3.0 9.0 0.00 0.00 0.00 88 1015.7
20210803070155 76 95 3.0 9.0 0.00 0.00 0.00 88 1015.7
20210803065554 76 93 4.0 9.0 0.00 0.00 0.00 88 1015.7
20210803065052 76 124 2.0 6.0 0.00 0.00 0.00 87 1015.8
20210803064614 76 99 3.0 6.0 0.00 0.00 0.00 87 1015.8
20210803064124 76 91 2.0 8.0 0.00 0.00 0.00 87 1015.8
20210803063544 76 97 3.0 8.0 0.00 0.00 0.00 87 1015.8
20210803063109 76 105 3.0 8.0 0.00 0.00 0.00 87 1016.0
20210803062543 76 101 3.0 8.0 0.00 0.00 0.00 87 1016.0
20210803062042 76 121 3.0 7.0 0.00 0.00 0.00 87 1016.1
20210803061659 76 90 3.0 8.0 0.00 0.00 0.00 87 1016.1
20210803061041 76 112 3.0 8.0 0.00 0.00 0.00 87 1016.1
20210803060540 76 86 2.0 7.0 0.00 0.00 0.00 87 1016.2
20210803060054 76 90 3.0 7.0 0.00 0.00 0.00 87 1016.2
20210803055539 76 101 2.0 4.0 0.00 0.00 0.00 86 1016.3
20210803055042 76 107 2.0 4.0 0.00 0.00 0.00 86 1016.5
20210803054656 76 107 2.0 4.0 0.00 0.00 0.00 86 1016.6
20210803054050 76 105 1.0 4.0 0.00 0.00 0.00 86 1016.6
20210803053536 76 91 2.0 4.0 0.00 0.00 0.00 85 1016.6
20210803053057 76 91 1.0 4.0 0.00 0.00 0.00 85 1016.7
20210803052533 76 98 1.0 3.0 0.00 0.00 0.00 85 1016.8
20210803052036 76 98 0.0 2.0 0.00 0.00 0.00 84 1016.9
20210803051557 76 98 1.0 3.0 0.00 0.00 0.00 84 1016.8
20210803051032 77 98 1.0 3.0 0.00 0.00 0.00 84 1016.8
20210803050531 77 98 0.0 3.0 0.00 0.00 0.00 84 1016.8
20210803050117 77 99 0.0 3.0 0.00 0.00 0.00 84 1016.9
20210803045534 77 93 1.0 3.0 0.00 0.00 0.00 83 1017.0
20210803045032 77 96 1.0 4.0 0.00 0.00 0.00 83 1017.0
20210803044604 77 94 1.0 4.0 0.00 0.00 0.00 83 1016.9
20210803044028 77 101 2.0 4.0 0.00 0.00 0.00 83 1016.9
20210803043527 77 109 2.0 6.0 0.00 0.00 0.00 83 1016.9
20210803043139 77 116 2.0 6.0 0.00 0.00 0.00 83 1017.0
20210803042537 77 131 2.0 6.0 0.00 0.00 0.00 82 1016.9
20210803042029 77 102 2.0 7.0 0.00 0.00 0.00 82 1016.9
20210803041539 78 107 2.0 7.0 0.00 0.00 0.00 82 1017.0
20210803041024 78 98 3.0 7.0 0.00 0.00 0.00 82 1017.0
20210803040533 78 114 3.0 7.0 0.00 0.00 0.00 82 1017.0
20210803040047 78 98 3.0 8.0 0.00 0.00 0.00 81 1017.1
20210803035535 78 119 3.0 8.0 0.00 0.00 0.00 81 1017.1
20210803035045 78 127 2.0 7.0 0.00 0.00 0.00 81 1017.2
20210803034627 78 83 3.0 7.0 0.00 0.00 0.00 81 1017.2
20210803034021 78 108 2.0 9.0 0.00 0.00 0.00 80 1017.2
20210803033531 79 88 2.0 10.0 0.00 0.00 0.00 80 1017.2
20210803033046 79 103 4.0 10.0 0.00 0.00 0.00 80 1017.2
20210803032526 79 90 3.0 8.0 0.00 0.00 0.00 80 1017.2
20210803032020 79 116 3.0 10.0 0.00 0.00 0.00 80 1017.3
20210803031543 79 100 3.0 10.0 0.00 0.00 0.00 80 1017.3
20210803031037 79 88 5.0 10.0 0.00 0.00 0.00 79 1017.3
20210803030519 79 111 4.0 10.0 0.00 0.00 0.00 79 1017.2
20210803030107 79 82 3.0 9.0 0.00 0.00 0.00 80 1017.2
20210803025519 78 95 4.0 9.0 0.00 0.00 0.00 80 1017.2
20210803025019 78 135 3.0 8.0 0.00 0.00 0.00 79 1017.3
20210803024605 78 108 3.0 7.0 0.00 0.00 0.00 79 1017.2
20210803024019 78 119 2.0 6.0 0.00 0.00 0.00 79 1017.2
20210803023522 78 97 2.0 6.0 0.00 0.00 0.00 79 1017.3
20210803023047 78 86 3.0 6.0 0.00 0.00 0.00 79 1017.2
20210803022517 79 92 3.0 6.0 0.00 0.00 0.00 79 1017.2
20210803022019 79 121 2.0 8.0 0.00 0.00 0.00 79 1017.1
20210803021529 79 101 3.0 8.0 0.00 0.00 0.00 78 1017.0
20210803021017 79 90 2.0 6.0 0.00 0.00 0.00 78 1016.9
20210803020526 79 96 2.0 7.0 0.00 0.00 0.00 78 1016.9
20210803020035 79 94 2.0 7.0 0.00 0.00 0.00 77 1016.9
20210803015516 79 101 3.0 7.0 0.00 0.00 0.00 77 1016.8
20210803015027 79 105 2.0 5.0 0.00 0.00 0.00 77 1016.9
20210803014529 79 115 2.0 6.0 0.00 0.00 0.00 77 1016.9
20210803014016 79 96 2.0 6.0 0.00 0.00 0.00 76 1016.8
20210803013536 80 92 2.0 6.0 0.00 0.00 0.00 76 1016.8
20210803013025 80 121 1.0 3.0 0.00 0.00 0.00 75 1016.8
20210803012517 80 121 0.0 2.0 0.00 0.00 0.00 75 1016.8
20210803012015 81 121 1.0 3.0 0.00 0.00 0.00 75 1016.8
20210803011537 81 121 1.0 4.0 0.00 0.00 0.00 74 1016.8
20210803011035 81 121 2.0 6.0 0.00 0.00 0.00 74 1016.8
20210803010515 81 78 2.0 9.0 0.00 0.00 0.00 74 1016.7
20210803010032 81 99 4.0 9.0 0.00 0.00 0.00 74 1016.7
20210803005518 81 134 3.0 9.0 0.00 0.00 0.00 73 1016.6
20210803005015 81 139 4.0 9.0 0.00 0.00 0.00 73 1016.5
20210803004514 81 97 4.0 7.0 0.00 0.00 0.00 73 1016.4
20210803004017 81 119 3.0 8.0 0.00 0.00 0.00 72 1016.4
20210803003514 82 107 4.0 8.0 0.00 0.00 0.00 72 1016.4
20210803003114 82 105 2.0 10.0 0.00 0.00 0.00 72 1016.4
20210803002518 82 112 5.0 10.0 0.00 0.00 0.00 71 1016.2
20210803002013 82 108 4.0 13.0 0.00 0.00 0.00 71 1016.2
20210803001536 82 101 6.0 13.0 0.00 0.00 0.00 71 1016.1
20210803001012 82 88 6.0 13.0 0.00 0.00 0.00 70 1016.0
20210803000511 82 82 6.0 13.0 0.00 0.00 0.00 70 1016.0
20210803000034 83 86 5.0 13.0 0.00 0.00 0.00 70 1015.9
20210802235517 83 95 5.0 13.0 0.00 0.00 0.00 69 1015.7
20210802235018 83 104 6.0 14.0 0.00 0.00 0.00 69 1015.7
20210802234601 83 93 6.0 14.0 0.00 0.00 0.00 69 1015.7
20210802234010 83 85 8.0 14.0 0.00 0.00 0.00 68 1015.6
20210802233509 84 51 7.0 14.0 0.00 0.00 0.00 67 1015.6
20210802233014 84 93 6.0 15.0 0.00 0.00 0.00 67 1015.5
20210802232508 84 66 8.0 17.0 0.00 0.00 0.00 66 1015.3
20210802232008 84 90 10.0 17.0 0.00 0.00 0.00 65 1015.3
20210802231523 85 100 7.0 11.0 0.00 0.00 0.00 65 1015.3
20210802231020 85 55 6.0 11.0 0.00 0.00 0.00 65 1015.2
20210802230510 85 111 4.0 11.0 0.00 0.00 0.00 65 1015.2
20210802230013 86 96 5.0 11.0 0.00 0.00 0.00 64 1015.1
20210802225511 86 69 5.0 11.0 0.00 0.00 0.00 65 1015.2
20210802225006 86 92 3.0 13.0 0.00 0.00 0.00 65 1015.1
20210802224514 87 77 7.0 13.0 0.00 0.00 0.00 64 1015.1
20210802224006 87 69 3.0 11.0 0.00 0.00 0.00 65 1014.9
20210802223505 87 94 2.0 10.0 0.00 0.00 0.00 66 1014.8
20210802223006 87 77 4.0 10.0 0.00 0.00 0.00 66 1014.7
20210802222504 87 54 3.0 13.0 0.00 0.00 0.00 66 1014.6
20210802222003 88 74 6.0 13.0 0.00 0.00 0.00 65 1014.5
20210802221505 88 50 5.0 12.0 0.00 0.00 0.00 66 1014.3
20210802221008 88 59 3.0 10.0 0.00 0.00 0.00 66 1014.2
20210802220521 88 91 5.0 15.0 0.00 0.00 0.00 66 1014.2
20210802220003 88 59 7.0 16.0 0.00 0.00 0.00 64 1014.1
20210802215505 89 49 7.0 16.0 0.00 0.00 0.00 64 1014.1
20210802215003 89 78 5.0 15.0 0.00 0.00 0.00 65 1013.9
20210802214519 89 36 7.0 15.0 0.00 0.00 0.00 64 1013.9
20210802214001 89 67 7.0 17.0 0.00 0.00 0.00 64 1013.9
20210802212600 89 63 6.0 17.0 0.00 0.00 0.00 64 1014.0
20210802212112 89 81 4.0 17.0 0.00 0.00 0.00 65 1014.0
20210802211743 89 86 7.0 13.0 0.00 0.00 0.00 65 1014.0
20210802211058 89 74 5.0 13.0 0.00 0.00 0.00 66 1013.9
20210802210602 89 67 6.0 15.0 0.00 0.00 0.00 65 1013.8
20210802210213 90 83 3.0 15.0 0.00 0.00 0.00 65 1013.8
20210802205557 90 74 8.0 15.0 0.00 0.00 0.00 63 1013.9
20210802205058 90 107 6.0 14.0 0.00 0.00 0.00 62 1013.9
20210802204750 90 74 7.0 15.0 0.00 0.00 0.00 62 1013.9
20210802204057 91 66 5.0 15.0 0.00 0.00 0.00 62 1013.7
20210802203557 91 57 6.0 13.0 0.00 0.00 0.00 63 1013.7
20210802203126 90 77 8.0 16.0 0.00 0.00 0.00 63 1013.7
20210802202606 91 120 8.0 16.0 0.00 0.00 0.00 63 1013.7
20210802202058 91 49 7.0 17.0 0.00 0.00 0.00 62 1013.7
20210802201646 92 82 6.0 17.0 0.00 0.00 0.00 61 1013.7
20210802201056 92 84 6.0 16.0 0.00 0.00 0.00 61 1013.7
20210802200556 92 98 8.0 16.0 0.00 0.00 0.00 60 1013.7
20210802200213 93 42 7.0 13.0 0.00 0.00 0.00 60 1013.8
20210802195555 93 59 6.0 13.0 0.00 0.00 0.00 61 1013.9
20210802195056 93 76 6.0 13.0 0.00 0.00 0.00 60 1014.0
20210802194651 93 135 4.0 13.0 0.00 0.00 0.00 59 1014.0
20210802194107 93 96 5.0 14.0 0.00 0.00 0.00 60 1014.0
20210802193602 93 66 7.0 14.0 0.00 0.00 0.00 59 1014.0
20210802193228 94 96 6.0 14.0 0.00 0.00 0.00 59 1014.0
20210802192552 94 103 7.0 13.0 0.00 0.00 0.00 58 1014.0
20210802192127 94 75 4.0 12.0 0.00 0.00 0.00 57 1014.0
20210802191631 94 34 5.0 13.0 0.00 0.00 0.00 57 1014.2
20210802191058 94 60 6.0 16.0 0.00 0.00 0.00 54 1014.2
20210802190548 94 105 9.0 16.0 0.00 0.00 0.00 52 1014.2
20210802190228 94 113 7.0 14.0 0.00 0.00 0.00 52 1014.4
20210802185547 94 96 7.0 16.0 0.00 0.00 0.00 51 1014.4
20210802185049 94 115 8.0 17.0 0.00 0.00 0.00 51 1014.5
20210802184642 93 104 8.0 19.0 0.00 0.00 0.00 51 1014.6
20210802184049 94 33 9.0 19.0 0.00 0.00 0.00 51 1014.6
20210802183549 93 109 6.0 18.0 0.00 0.00 0.00 52 1014.7
20210802183105 93 90 10.0 18.0 0.00 0.00 0.00 52 1014.8
20210802182547 93 126 6.0 15.0 0.00 0.00 0.00 56 1014.8
20210802182046 93 121 7.0 14.0 0.00 0.00 0.00 55 1014.9
20210802181645 93 115 7.0 16.0 0.00 0.00 0.00 53 1015.0
20210802181057 93 111 8.0 16.0 0.00 0.00 0.00 54 1015.0
20210802180538 93 123 7.0 16.0 0.00 0.00 0.00 54 1015.1
20210802180053 93 142 6.0 14.0 0.00 0.00 0.00 55 1015.3
20210802175538 93 107 6.0 15.0 0.00 0.00 0.00 57 1015.3
20210802175054 93 111 8.0 15.0 0.00 0.00 0.00 55 1015.4
20210802174549 92 100 6.0 16.0 0.00 0.00 0.00 57 1015.6
20210802174037 92 131 8.0 16.0 0.00 0.00 0.00 56 1015.7
20210802173549 92 84 7.0 16.0 0.00 0.00 0.00 57 1015.7
20210802173057 92 126 6.0 16.0 0.00 0.00 0.00 56 1015.8
20210802172605 92 133 10.0 19.0 0.00 0.00 0.00 56 1015.8
20210802172037 92 95 7.0 15.0 0.00 0.00 0.00 57 1015.8
20210802171540 92 128 5.0 16.0 0.00 0.00 0.00 58 1015.9
20210802171031 92 119 7.0 17.0 0.00 0.00 0.00 57 1016.0
20210802170530 92 130 10.0 14.0 0.00 0.00 0.00 56 1016.0
20210802170106 92 92 7.0 18.0 0.00 0.00 0.00 58 1016.2
20210802165531 92 107 7.0 14.0 0.00 0.00 0.00 58 1016.3
20210802165036 91 130 5.0 14.0 0.00 0.00 0.00 60 1016.3
20210802164532 91 80 8.0 14.0 0.00 0.00 0.00 59 1016.4
20210802164024 91 114 7.0 16.0 0.00 0.00 0.00 58 1016.5
20210802163535 91 142 8.0 16.0 0.00 0.00 0.00 58 1016.6
20210802163044 91 123 7.0 16.0 0.00 0.00 0.00 59 1016.6
20210802162521 91 69 8.0 16.0 0.00 0.00 0.00 59 1016.7
20210802162020 91 104 7.0 16.0 0.00 0.00 0.00 58 1016.8
20210802161649 91 128 7.0 16.0 0.00 0.00 0.00 58 1016.8
20210802161018 91 107 7.0 17.0 0.00 0.00 0.00 58 1016.9
20210802160528 90 96 7.0 17.0 0.00 0.00 0.00 60 1016.9
20210802160034 90 88 9.0 17.0 0.00 0.00 0.00 60 1017.0
20210802155516 90 133 8.0 14.0 0.00 0.00 0.00 59 1017.1
20210802155019 90 119 8.0 17.0 0.00 0.00 0.00 61 1017.1
20210802154537 90 95 8.0 16.0 0.00 0.00 0.00 61 1017.1
20210802154014 90 121 8.0 17.0 0.00 0.00 0.00 61 1017.2
20210802153512 89 119 9.0 17.0 0.00 0.00 0.00 61 1017.3
20210802153042 89 73 8.0 17.0 0.00 0.00 0.00 63 1017.4
20210802152512 89 74 8.0 18.0 0.00 0.00 0.00 63 1017.4
20210802152010 89 78 7.0 18.0 0.00 0.00 0.00 65 1017.4
20210802151510 89 125 7.0 19.0 0.00 0.00 0.00 66 1017.4
20210802151007 89 111 7.0 19.0 0.00 0.00 0.00 64 1017.4
20210802150507 89 118 7.0 16.0 0.00 0.00 0.00 65 1017.5
20210802150012 89 116 5.0 16.0 0.00 0.00 0.00 67 1017.5
20210802145506 88 115 5.0 12.0 0.00 0.00 0.00 67 1017.6
20210802145001 88 96 5.0 13.0 0.00 0.00 0.00 68 1017.6
20210802144505 87 80 7.0 14.0 0.00 0.00 0.00 68 1017.7
20210802143622 87 109 8.0 16.0 0.00 0.00 0.00 68 1017.8
20210802143117 87 94 6.0 14.0 0.00 0.00 0.00 69 1017.8
20210802142556 86 86 7.0 14.0 0.00 0.00 0.00 71 1017.8
20210802142055 86 94 7.0 14.0 0.00 0.00 0.00 72 1017.9
20210802141715 86 113 6.0 16.0 0.00 0.00 0.00 73 1018.0
20210802141053 86 142 8.0 16.0 0.00 0.00 0.00 72 1018.1
20210802140553 86 120 7.0 14.0 0.00 0.00 0.00 73 1018.1
20210802140137 86 90 6.0 14.0 0.00 0.00 0.00 73 1018.1
20210802135550 85 131 6.0 15.0 0.00 0.00 0.00 74 1018.1
20210802135053 85 91 6.0 16.0 0.00 0.00 0.00 75 1018.2
20210802134623 85 84 7.0 16.0 0.00 0.00 0.00 74 1018.2
20210802134130 84 98 7.0 16.0 0.00 0.00 0.00 75 1018.3
20210802133545 84 108 6.0 16.0 0.00 0.00 0.00 75 1018.2
20210802133140 84 113 7.0 15.0 0.00 0.00 0.00 76 1018.3
20210802132543 83 157 7.0 14.0 0.00 0.00 0.00 76 1018.2
20210802132106 83 109 7.0 14.0 0.00 0.00 0.00 77 1018.3
20210802131652 83 95 8.0 14.0 0.00 0.00 0.00 78 1018.4
20210802131040 83 83 8.0 15.0 0.00 0.00 0.00 78 1018.3
20210802130539 83 96 9.0 15.0 0.00 0.00 0.00 78 1018.3
20210802130203 83 111 5.0 12.0 0.00 0.00 0.00 79 1018.3
20210802125537 82 113 6.0 20.0 0.00 0.00 0.00 80 1018.4
20210802125039 82 106 7.0 20.0 0.00 0.00 0.00 80 1018.4
20210802124631 82 129 7.0 12.0 0.00 0.00 0.00 80 1018.4
20210802124050 81 128 5.0 15.0 0.00 0.00 0.00 81 1018.4
20210802123536 81 48 6.0 13.0 0.00 0.00 0.00 82 1018.4
20210802123057 81 103 4.0 13.0 0.00 0.00 0.00 82 1018.3
20210802122534 80 85 6.0 12.0 0.00 0.00 0.00 83 1018.2
20210802122028 80 88 6.0 12.0 0.00 0.00 0.00 83 1018.2
20210802121619 80 98 6.0 12.0 0.00 0.00 0.00 84 1018.1
20210802121039 79 96 6.0 12.0 0.00 0.00 0.00 85 1018.1
20210802120526 79 107 7.0 12.0 0.00 0.00 0.00 86 1018.1
20210802120038 78 108 4.0 10.0 0.00 0.00 0.00 87 1018.1
20210802115538 78 102 5.0 9.0 0.00 0.00 0.00 88 1018.1
20210802115036 77 102 3.0 9.0 0.00 0.00 0.00 89 1018.2
20210802114530 77 104 4.0 7.0 0.00 0.00 0.00 89 1018.2
20210802114030 77 115 1.0 4.0 0.00 0.00 0.00 89 1018.3
20210802113522 76 113 1.0 6.0 0.00 0.00 0.00 90 1018.2
20210802113100 76 131 2.0 6.0 0.00 0.00 0.00 90 1018.2
20210802112518 76 119 2.0 4.0 0.00 0.00 0.00 90 1018.2
20210802112018 75 125 1.0 4.0 0.00 0.00 0.00 90 1018.2
20210802111557 75 122 2.0 4.0 0.00 0.00 0.00 89 1018.1
20210802111016 75 101 1.0 6.0 0.00 0.00 0.00 89 1018.1
20210802110523 75 108 2.0 6.0 0.00 0.00 0.00 90 1017.9
20210802110018 75 119 2.0 6.0 0.00 0.00 0.00 89 1017.9
20210802105521 75 123 2.0 4.0 0.00 0.00 0.00 89 1017.9
20210802105026 75 121 1.0 4.0 0.00 0.00 0.00 89 1017.9
20210802104540 75 129 0.0 4.0 0.00 0.00 0.00 89 1017.9
20210802104019 75 139 1.0 3.0 0.00 0.00 0.00 89 1017.8
20210802103516 75 139 0.0 3.0 0.00 0.00 0.00 89 1017.7
20210802103012 75 138 0.0 3.0 0.00 0.00 0.00 89 1017.7
20210802102512 75 138 0.0 2.0 0.00 0.00 0.00 89 1017.7
20210802102006 75 138 0.0 3.0 0.00 0.00 0.00 89 1017.7
20210802101508 75 138 1.0 3.0 0.00 0.00 0.00 89 1017.6
20210802101005 75 134 1.0 4.0 0.00 0.00 0.00 89 1017.6
20210802100520 75 107 1.0 5.0 0.00 0.00 0.00 89 1017.5
20210802100006 75 132 2.0 5.0 0.00 0.00 0.00 89 1017.4
20210802095505 75 145 2.0 4.0 0.00 0.00 0.00 89 1017.4